Linas Kuklys

Olheiro - Zalgiris
23 Abr 2028
Domingo
Processo

Personalidade

Adaptabilidade (18) Ambição (8) Controvérsia (5) Lealdade (15) Pressão (18) Profissionalismo (19) Espírito Esportivo (11) Temperamento (10)

Perfil

Estilo de Treinamento Democrático
Licença Continental B
Determinação 4
Gestão de Pessoas 4
Motivação 6
Disciplina 9
Satisfação no Trabalho
100%
Fadiga
0%
Função Olheiro
Salário 48.3K p/s
Contrato 14.03.2029

Desempenho

Comportamento Bom
Eficácia do Treinamento
30%
Desenvolvimento do Jogador
20%
Prevenção de Lesões
20%
Implementação Tática
30%

Eventos Recentes

Participou de uma reunião de recrutamento 7d atrás
Recomendou um alvo de transferência 7d atrás
Participou de uma reunião de recrutamento 14d atrás
Recomendou um alvo de transferência 14d atrás
Participou de uma reunião de recrutamento 21d atrás
Recomendou um alvo de transferência 21d atrás
Participou de uma reunião de recrutamento 28d atrás
Recomendou um alvo de transferência 28d atrás

Monitorando agora

146
Jogador Clube Status Habilidade Confiança Observado Última observação Último voto
Fabien Ourega Kauno Zalgiris Perdido 105 / 100 79% 1 04.01.2028 Aprovar
Nathan Baxter Watford Ativo 124 / 131 40% 1 01.01.2028 -
William Rovida Pro Patria Ativo 113 / 111 40% 1 01.01.2028 -
Jack Walton Preston Ativo 120 / 114 40% 1 01.01.2028 -
Nikolai Rehnen Grimsby Town Ativo 102 / 116 40% 1 31.12.2027 -
Jacob Chapman Huddersfield Town Ativo 120 / 107 40% 1 31.12.2027 -
Alexei Rojas Fedorushchenko Barrow AFC Ativo 114 / 112 40% 2 29.12.2027 -
Filip Marschall Stevenage Ativo 114 / 116 40% 1 29.12.2027 -
Nathan Bishop AFC Wimbledon Ativo 110 / 103 40% 1 29.12.2027 -
Myles Roberts Cambridge United Ativo 105 / 109 40% 2 22.12.2027 -
Federico Losas Chacarita Juniors Ativo 121 / 122 40% 1 22.12.2027 -
Ivan Lomaev Ufa Ativo 118 / 124 40% 1 21.12.2027 -
Joel Pereira Reading Ativo 117 / 119 40% 1 21.12.2027 -
Nikita Kokarev Spartak Moscow Ativo 124 / 124 40% 1 21.12.2027 -
Alfie Whiteman Newport County Ativo 115 / 112 40% 2 20.12.2027 -
George Evans Exeter City Ativo 115 / 117 40% 1 20.12.2027 -
Lautaro Petruchi Gimnasia y Esgrima Ativo 117 / 126 40% 3 19.12.2027 -
Ilja Pomazun Spartak Moscow Ativo 124 / 118 40% 1 19.12.2027 -
Killian Cahill Leyton Orient Ativo 113 / 129 40% 1 17.12.2027 -
Emiliano González Almagro Ativo 119 / 113 40% 1 17.12.2027 -
Roberto Ramírez Godoy Cruz Ativo 115 / 126 40% 1 17.12.2027 -
Julián Cosi Madryn Ativo 117 / 99 40% 1 16.12.2027 -
Khetag Khosonov Akron Ativo 118 / 122 40% 1 16.12.2027 -
Bruno Leyes Godoy Cruz Ativo 120 / 114 40% 2 13.12.2027 -
Tobías Leiva Estudiantes Ativo 109 / 103 40% 1 13.12.2027 -
Patrick Yazbek Nashville SC Ativo 132 / 142 40% 1 13.12.2027 -
Dmitry Pestryakov Krasnodar Ativo 122 / 129 40% 2 12.12.2027 -
Iván Tapia Barracas Central Ativo 128 / 132 40% 1 12.12.2027 -
Pedro Ramírez Deportivo Riestra Ativo 113 / 113 40% 1 12.12.2027 -
Igor Leschuk Dinamo Moscow Ativo 117 / 117 40% 1 11.12.2027 -
Luciano Jachfe Nueva Chicago Ativo 127 / 115 40% 1 11.12.2027 -
Marcos Enrique Tristán Suárez Ativo 112 / 113 40% 1 10.12.2027 -
Ignacio Vázquez Platense Ativo 122 / 130 40% 1 10.12.2027 -
Nicolás Zalazar Aldosivi Ativo 120 / 132 40% 1 10.12.2027 -
Mikheil Makatsaria Torpedo Kutaisi Ativo 101 / 105 40% 1 10.12.2027 -
Evgeny Latyshonok Nizhniy Novgorod Ativo 124 / 118 40% 1 10.12.2027 -
Michele Cerofolini Empoli Ativo 135 / 123 40% 1 10.12.2027 -
Corey Addai Barnsley Ativo 109 / 110 40% 1 09.12.2027 -
Will Dennis Milton Keynes Dons Ativo 117 / 129 40% 1 09.12.2027 -
Tom Booth Crewe Alexandra Ativo 113 / 102 40% 1 09.12.2027 -
Nicolás Cordero Aldosivi Ativo 115 / 110 40% 2 06.12.2027 -
Mateo Bajamich Atlético Tucumán Ativo 124 / 121 40% 1 06.12.2027 -
Alexandr Rudenko Lokomotiv Moscow Ativo 122 / 128 40% 1 06.12.2027 -
Nodar Lominadze Torpedo Kutaisi Ativo 118 / 118 40% 1 05.12.2027 -
Maxim Sidorov Akhmat Grozny Ativo 111 / 113 40% 1 05.12.2027 -
Santiago Fernández Talleres Ativo 128 / 114 40% 1 04.12.2027 -
Bruno Palazzo Nueva Chicago Ativo 109 / 113 40% 1 04.12.2027 -
Alan Sosa Tigre Ativo 116 / 124 40% 1 03.12.2027 -
Nahuel Pezzini Arsenal Ativo 116 / 120 40% 1 03.12.2027 -
Joe Buršík Portsmouth Ativo 128 / 120 40% 1 03.12.2027 -
Abdoulie Sanyang Hajduk Split Ativo 119 / 116 40% 1 02.12.2027 -
Timur Suleimanov Nizhniy Novgorod Ativo 120 / 116 40% 1 02.12.2027 -
Tamerlan Musaev CSKA Moscow Ativo 118 / 130 40% 1 02.12.2027 -
Jacques Siwe Rubin Ativo 118 / 111 40% 1 01.12.2027 -
Gennaro Tutino Sampdoria Ativo 124 / 138 40% 1 01.12.2027 -
Joe Walsh Queens Park Rangers Ativo 114 / 119 40% 2 30.11.2027 -
Will Mannion Charlton Athletic Ativo 128 / 130 40% 1 30.11.2027 -
Facundo Batista Penarol Ativo 123 / 104 40% 2 29.11.2027 -
Camillo Tavernelli Arezzo Ativo 126 / 106 40% 1 29.11.2027 -
Cesare Galeotti Trapani Ativo 119 / 112 40% 1 29.11.2027 -
Fran Vieites Walsall Ativo 132 / 114 40% 1 29.11.2027 -
Daniel Barrea Godoy Cruz Ativo 118 / 130 40% 2 28.11.2027 -
Antony Alonso Deportivo Riestra Ativo 119 / 121 40% 2 28.11.2027 -
Bogdan Ovsyannikov Orenburg Ativo 118 / 115 40% 1 28.11.2027 -
Juan Yangali San Telmo Ativo 115 / 103 40% 1 28.11.2027 -
Fernando Costanza Krylya Sovetov Ativo 124 / 115 40% 1 28.11.2027 -
Brian Calderara Chacarita Juniors Ativo 108 / 100 40% 1 28.11.2027 -
Maximiliano Salas River Plate Ativo 134 / 129 40% 1 25.11.2027 -
Rodrigo Bogarín Barracas Central Ativo 113 / 116 40% 1 25.11.2027 -
Denzel Jubitana Neftchi Ativo 129 / 117 40% 1 25.11.2027 -
Ludovico Del Sorbo Sorrento Ativo 117 / 122 40% 1 24.11.2027 -
Luka Vipotnik NK Domzale Ativo 109 / 100 40% 1 24.11.2027 -
Dardan Shabanhaxhaj Rubin Ativo 124 / 117 40% 1 24.11.2027 -
Liam Cullen Swansea City Ativo 120 / 109 40% 1 24.11.2027 -
Giuseppe Sibilli Juve Stabia Ativo 117 / 136 40% 1 24.11.2027 -
Ramiro Ruiz Rodríguez Atlético Tucumán Ativo 127 / 113 40% 1 23.11.2027 -
Giuseppe Di Serio Spezia Ativo 119 / 110 40% 1 23.11.2027 -
Elías Torres Racing Club Ativo 124 / 115 40% 2 22.11.2027 -
Chinedu Geoffrey Krylya Sovetov Ativo 119 / 113 40% 2 22.11.2027 -
Egas Cacintura Akhmat Grozny Ativo 125 / 125 40% 2 21.11.2027 -
Adam Bareiro Boca Juniors Ativo 128 / 135 40% 1 21.11.2027 -
Tobías Cervera Gimnasia y Esgrima Ativo 123 / 134 40% 1 21.11.2027 -
George Wickens Lincoln City Ativo 125 / 123 40% 1 21.11.2027 -
Joaquín Bigo Tristán Suárez Ativo 115 / 121 40% 1 21.11.2027 -
Esteban Glellel Quilmes Ativo 123 / 118 40% 2 20.11.2027 -
Amaury Morales Leon Ativo 125 / 125 40% 1 20.11.2027 -
Leandro Brey Boca Juniors Ativo 139 / 143 40% 1 20.11.2027 -
Hernán de la Fuente Instituto Ativo 118 / 136 40% 1 19.11.2027 -
Du Queiróz Zenit Ativo 117 / 122 40% 1 19.11.2027 -
José Florentín Independiente Rivadavia Ativo 125 / 129 40% 1 19.11.2027 -
Facundo Nadalín San Martín SJ Ativo 113 / 124 40% 1 18.11.2027 -
Maxime Sivis Orenburg Ativo 116 / 108 40% 1 18.11.2027 -
Yeferson Rodallega Envigado Ativo 123 / 120 40% 1 18.11.2027 -
Renaldo Cephas Gabala Ativo 116 / 102 40% 1 17.11.2027 -
Mirlind Daku Spartak Moscow Ativo 128 / 134 40% 1 17.11.2027 -
Sergio Barlocco Trento Ativo 110 / 132 40% 1 17.11.2027 -
Alexandr Koryakin Krasnodar Ativo 118 / 111 40% 1 17.11.2027 -
Motiejus Burba Kauno Zalgiris Ativo 93 / 87 72% 1 19.07.2027 Aprovar
Omran Haydary Suduva Perdido 108 / 95 72% 1 04.06.2027 Aprovar
Pietro Reggiori Pro Patria Ativo 100 / 104 40% 4 30.05.2027 -
Matvey Kuznetsov Spartak Moscow Ativo 81 / 79 40% 2 30.05.2027 -
Timofey Marinkin Dinamo Moscow Ativo 77 / 80 40% 1 30.05.2027 -
Chari Giwa US Bougouni Ativo 81 / 83 40% 2 24.05.2027 -
Denis Popenkov Akron Ativo 64 / 60 40% 1 24.05.2027 -
Daniil Cherkasov Angusht Ativo 70 / 77 40% 1 24.05.2027 -
Simone Kosijer Triestina Ativo 96 / 116 40% 2 23.05.2027 -
Tiago Freitas Benfica Ativo 114 / 106 40% 2 23.05.2027 -
Rhys Chadwick AFC Wimbledon Ativo 99 / 116 40% 1 21.05.2027 -
Dmitry Zheltukhin Tver Ativo 64 / 68 40% 2 18.05.2027 -
Bade Aluko Leicester City Ativo 106 / 123 40% 1 18.05.2027 -
Jamie Wähling Hibernians Ativo 73 / 75 40% 1 17.05.2027 -
Gonçalo Oliveira Benfica Ativo 100 / 106 40% 1 16.05.2027 -
Matteo Cichella Frosinone Ativo 120 / 127 40% 1 16.05.2027 -
Wessel Kuhn PSV Ativo 114 / 100 40% 1 15.05.2027 -
Kirill Volkov Volgar Ativo 83 / 95 40% 1 15.05.2027 -
Kirill Larionov Kuban Holding Ativo 72 / 65 40% 1 15.05.2027 -
Makar Vysochenko Spartak Moscow Ativo 78 / 99 40% 1 14.05.2027 -
Samuele di Benedetto Twente Ativo 122 / 117 40% 3 08.05.2027 -
Savva Ponomarev Znamya Truda Ativo 62 / 76 40% 2 08.05.2027 -
Nikita Kononenko Metallurg Ativo 73 / 87 40% 1 07.05.2027 -
Stanislav Bukatov Salyut Ativo 77 / 87 40% 1 07.05.2027 -
Kiani Inge Groningen Ativo 111 / 111 40% 1 07.05.2027 -
Francis Gomez Cardiff City Ativo 115 / 97 40% 3 06.05.2027 -
Kazunari Kita Real Sociedad Ativo 98 / 114 40% 1 06.05.2027 -
Martim Cunha Porto Ativo 107 / 96 40% 2 02.05.2027 -
Ivan Giraldo Valencia Ativo 117 / 134 40% 1 02.05.2027 -
Georgy Tikhomirov Dinamo Moscow Ativo 82 / 93 40% 1 02.05.2027 -
Alexandr Burkov Rodina M Ativo 71 / 79 40% 2 30.04.2027 -
Luca Gobbo Bra Ativo 90 / 88 40% 1 30.04.2027 -
Maxim Radchenko Rostov Ativo 83 / 93 40% 1 30.04.2027 -
Ezra Mayers West Ham United Ativo 114 / 119 40% 1 28.04.2027 -
Yegor Vedernikov Irkutsk Ativo 76 / 78 40% 1 28.04.2027 -
Amine Boukamir Charleroi Ativo 101 / 119 40% 2 27.04.2027 -
Ivan Ryzhkov Ural Ativo 66 / 56 40% 1 27.04.2027 -
Olivier Leroux Mouscron Ativo 94 / 110 40% 1 25.04.2027 -
Ivan Ivaschenko Orenburg Ativo 69 / 82 40% 1 24.04.2027 -
Kirill Simonov Fakel Ativo 87 / 101 40% 1 18.04.2027 -
Riley Owen Stevenage Ativo 111 / 104 40% 1 18.04.2027 -
Miguel Figueiredo Benfica Ativo 118 / 105 40% 1 08.04.2027 -
Salvador Blopá Sporting CP Ativo 120 / 124 40% 1 08.04.2027 -
Kirill Glazunov Zenit Ativo 80 / 78 40% 1 07.04.2027 -
Konta Ismaily Ativo 96 / 95 40% 1 05.04.2027 -
Luca Roversi Pergolettese Ativo 83 / 80 40% 1 05.04.2027 -
Darius Dapkus Utenis Ativo 103 / 103 30% 1 / 1m 12.08.2026 -
David Barbona Defensa y Justicia Ativo 132 / 107 40% 1 01.08.2026 -
Higinio Albacete Ativo 116 / 126 40% 1 01.08.2026 -